Time[GMT],current_speed[cm/s](2m),current_direction[angular_degrees](2m),temperature[C](2m),current_u[cm/s](2m),current_v[cm/s](2m)
2013-06-24 17:00,24.93,242.1,14.59,-22.04,-11.65
2013-06-24 18:00,37.54,257.6,13.90,-36.67,-8.06
2013-06-24 19:00,22.29,265.3,14.24,-22.22,-1.81
2013-06-24 20:00,9.68,289.2,15.31,-9.14,3.19
2013-06-24 21:00,9.09,339.9,14.24,-3.13,8.54
2013-06-24 23:00,5.28,47.0,13.46,3.86,3.60
2013-06-25 00:00,7.92,178.1,15.47,0.26,-7.91
2013-06-25 01:00,9.09,311.0,14.87,-6.86,5.97
2013-06-25 02:00,13.20,275.2,15.00,-13.14,1.19
2013-06-25 03:00,13.20,240.7,14.75,-11.51,-6.45
2013-06-25 04:00,22.00,223.8,14.21,-15.24,-15.86
2013-06-25 05:00,23.17,219.6,13.68,-14.78,-17.85
2013-06-25 06:00,30.80,188.0,14.75,-4.28,-30.50
2013-06-25 08:00,29.33,186.9,13.93,-3.54,-29.12
2013-06-25 09:00,28.74,174.3,13.93,2.87,-28.60
2013-06-25 10:00,10.85,173.9,13.83,1.15,-10.79
2013-06-25 11:00,6.45,286.4,13.52,-6.19,1.83
2013-06-25 12:00,8.80,309.3,13.58,-6.81,5.57
2013-06-25 13:00,17.01,298.4,13.52,-14.97,8.09
2013-06-25 14:00,22.88,331.1,13.93,-11.06,20.03
2013-06-25 15:00,20.24,310.0,13.77,-15.51,13.01
2013-06-25 16:00,13.79,316.7,14.40,-9.46,10.03
2013-06-25 17:00,12.03,272.7,13.83,-12.01,0.57
2013-06-25 19:00,3.81,102.9,15.28,3.72,-0.85
2013-06-25 20:00,15.54,148.3,14.65,8.18,-13.22
2013-06-25 21:00,16.13,153.5,14.31,7.19,-14.44
2013-06-25 22:00,14.08,99.0,15.88,13.90,-2.21
2013-06-25 23:00,14.37,80.7,14.94,14.18,2.31
2013-06-26 00:00,,,,,
2013-06-26 01:00,22.29,120.5,14.62,19.21,-11.31
2013-06-26 02:00,13.79,157.7,14.71,5.22,-12.76
2013-06-26 04:00,18.48,217.2,14.12,-11.16,-14.72
2013-06-26 05:00,20.82,215.1,13.96,-11.96,-17.05
2013-06-26 06:00,38.42,231.6,13.77,-30.10,-23.88
2013-06-26 07:00,41.65,234.4,13.77,-33.86,-24.25
2013-06-26 08:00,48.39,238.6,13.64,-41.31,-25.20
2013-06-26 09:00,39.30,245.6,13.14,-35.80,-16.21
2013-06-26 10:00,31.68,252.7,13.30,-30.24,-9.43
2013-06-26 11:00,25.81,259.7,13.24,-25.40,-4.61
2013-06-26 13:00,28.16,9.0,13.52,4.41,27.81
2013-06-26 14:00,15.54,15.7,13.27,4.21,14.97
2013-06-26 15:00,12.03,35.7,12.79,7.02,9.76
2013-06-26 16:00,2.05,104.0,12.76,1.99,-0.49
2013-06-26 17:00,12.91,194.0,12.86,-3.11,-12.52
2013-06-26 18:00,26.69,189.7,13.24,-4.52,-26.31
2013-06-26 19:00,44.58,212.9,13.96,-24.25,-37.41
2013-06-26 20:00,45.17,232.3,13.58,-35.73,-27.63
2013-06-26 21:00,48.39,233.7,12.79,-39.00,-28.66
2013-06-26 23:00,38.72,267.4,12.13,-38.68,-1.73
2013-06-27 00:00,37.54,280.5,11.44,-36.92,6.81
2013-06-27 01:00,39.01,281.5,11.03,-38.22,7.78
2013-06-27 02:00,30.80,312.1,11.31,-22.85,20.65
2013-06-27 03:00,30.21,332.8,11.38,-13.79,26.88
2013-06-27 04:00,23.17,322.3,11.47,-14.17,18.33
2013-06-27 05:00,11.73,286.4,11.54,-11.25,3.32
2013-06-27 06:00,10.27,258.0,11.57,-10.04,-2.14
2013-06-27 08:00,29.92,216.1,11.47,-17.63,-24.17
2013-06-27 09:00,34.90,224.5,11.22,-24.48,-24.87
2013-06-27 10:00,37.84,229.5,11.16,-28.76,-24.59
2013-06-27 11:00,32.26,234.4,11.03,-26.23,-18.78
2013-06-27 12:00,30.50,231.9,11.13,-24.01,-18.81
2013-06-27 13:00,31.68,249.5,11.22,-29.67,-11.09
2013-06-27 14:00,30.80,260.1,11.31,-30.33,-5.32
2013-06-27 15:00,31.38,274.8,11.54,-31.27,2.64
2013-06-27 17:00,37.84,275.5,11.79,-37.66,3.65
2013-06-27 18:00,39.60,265.0,11.66,-39.44,-3.46
2013-06-27 19:00,44.87,260.4,11.35,-44.25,-7.47
2013-06-27 20:00,42.24,249.9,10.87,-39.65,-14.54
2013-06-27 21:00,40.18,253.4,11.47,-38.50,-11.49
2013-06-27 22:00,22.88,280.5,11.57,-22.50,4.15
2013-06-27 23:00,12.91,274.1,11.91,-12.87,0.93
2013-06-28 00:00,17.60,285.4,11.82,-16.97,4.67
2013-06-28 01:00,22.29,261.1,11.76,-22.02,-3.44
2013-06-28 03:00,29.92,262.9,11.35,-29.69,-3.71
2013-06-28 04:00,43.41,263.6,11.35,-43.14,-4.86
2013-06-28 05:00,46.34,266.4,11.28,-46.25,-2.92
2013-06-28 06:00,60.13,262.9,11.25,-59.66,-7.46
2013-06-28 07:00,60.71,263.2,11.38,-60.29,-7.16
2013-06-28 08:00,59.25,268.1,11.28,-59.22,-1.92
2013-06-28 09:00,54.55,259.4,11.28,-53.62,-10.07
2013-06-28 10:00,44.87,261.1,11.28,-44.34,-6.93
2013-06-28 11:00,45.17,271.0,11.28,-45.16,0.76
2013-06-28 13:00,33.44,282.2,11.09,-32.68,7.07
2013-06-28 14:00,24.93,274.8,11.06,-24.84,2.10
2013-06-28 15:00,25.22,292.8,10.97,-23.26,9.76
2013-06-28 16:00,32.26,327.2,11.06,-17.47,27.12
2013-06-28 17:00,27.28,328.3,11.47,-14.34,23.20
2013-06-28 18:00,16.13,0.9,12.26,0.26,16.13
2013-06-28 19:00,2.64,241.1,12.32,-2.31,-1.28
2013-06-28 20:00,22.00,199.2,11.88,-7.25,-20.77
2013-06-28 22:00,39.30,189.0,10.97,-6.17,-38.81
2013-06-28 23:00,42.82,215.4,10.84,-24.81,-34.90
2013-06-29 00:00,39.60,230.2,10.81,-30.41,-25.36
2013-06-29 01:00,40.77,221.4,10.87,-26.95,-30.59
2013-06-29 02:00,40.18,229.1,10.75,-30.38,-26.30
2013-06-29 03:00,28.74,239.7,10.71,-24.81,-14.52
2013-06-29 04:00,31.09,254.1,11.06,-29.90,-8.53
2013-06-29 05:00,34.90,284.0,11.00,-33.87,8.43
2013-06-29 07:00,26.10,281.5,11.06,-25.58,5.21
2013-06-29 08:00,22.58,273.4,10.94,-22.54,1.35
2013-06-29 09:00,24.05,285.0,10.94,-23.23,6.23
2013-06-29 10:00,14.37,246.7,11.03,-13.20,-5.68
2013-06-29 11:00,25.81,233.3,11.19,-20.70,-15.41
2013-06-29 12:00,23.76,209.8,11.38,-11.80,-20.62
2013-06-29 13:00,35.78,236.5,11.31,-29.84,-19.75
2013-06-29 14:00,31.38,247.4,11.38,-28.97,-12.06
2013-06-29 15:00,32.85,256.5,11.38,-31.95,-7.64
2013-06-29 17:00,34.90,268.9,11.03,-34.90,-0.70
2013-06-29 18:00,36.96,272.0,11.22,-36.93,1.30
2013-06-29 19:00,34.32,268.5,11.44,-34.30,-0.90
2013-06-29 20:00,39.01,279.8,11.44,-38.45,6.61
2013-06-29 21:00,48.10,285.4,11.31,-46.38,12.75
2013-06-29 22:00,31.68,292.8,11.38,-29.21,12.25
2013-06-29 23:00,23.76,304.7,11.54,-19.53,13.53
2013-06-30 00:00,12.03,300.8,11.50,-10.32,6.17
2013-06-30 02:00,4.99,23.8,11.31,2.01,4.56
2013-06-30 03:00,4.99,64.6,11.25,4.50,2.14
2013-06-30 04:00,4.11,36.4,11.16,2.44,3.30
2013-06-30 14:00,34.90,236.9,10.59,-29.22,-19.08
2013-06-30 15:00,29.33,247.4,10.81,-27.08,-11.27
2013-06-30 16:00,29.92,273.1,10.81,-29.87,1.60
2013-06-30 17:00,37.84,271.3,11.09,-37.83,0.87
2013-06-30 18:00,39.30,275.2,11.28,-39.14,3.55
2013-06-30 19:00,40.48,274.5,11.28,-40.35,3.16
2013-06-30 21:00,30.21,266.4,11.44,-30.15,-1.90
2013-06-30 22:00,29.04,254.8,11.69,-28.02,-7.62
2013-06-30 23:00,28.45,203.1,12.39,-11.16,-26.17
2013-07-01 00:00,27.57,223.5,12.67,-18.98,-20.00
2013-07-01 01:00,36.37,220.7,11.63,-23.71,-27.58
2013-07-01 02:00,36.08,231.9,11.31,-28.40,-22.24
2013-07-01 03:00,35.78,220.0,11.19,-22.99,-27.42
2013-07-01 04:00,25.52,233.7,11.88,-20.56,-15.11
2013-07-01 05:00,22.29,222.8,11.94,-15.14,-16.36
2013-07-01 07:00,23.17,213.6,11.82,-12.84,-19.29
2013-07-01 08:00,22.88,214.0,11.76,-12.79,-18.97
2013-07-01 09:00,20.82,234.4,11.76,-16.93,-12.12
2013-07-01 10:00,27.57,230.2,11.47,-21.17,-17.66
2013-07-01 11:00,29.04,218.6,11.38,-18.10,-22.70
2013-07-01 12:00,35.78,216.5,13.08,-21.27,-28.78
2013-07-01 13:00,37.54,232.3,12.98,-29.70,-22.97
2013-07-01 15:00,26.40,265.0,12.26,-26.30,-2.31
2013-07-01 16:00,20.82,271.7,11.63,-20.82,0.60
2013-07-01 17:00,17.01,281.2,11.25,-16.69,3.29
2013-07-01 18:00,17.30,285.7,11.22,-16.66,4.69
2013-07-01 19:00,18.48,280.5,11.41,-18.17,3.35
2013-07-01 20:00,23.17,278.3,11.06,-22.93,3.36
2013-07-01 21:00,25.81,286.4,11.54,-24.76,7.30
2013-07-01 22:00,30.21,284.3,11.41,-29.27,7.47
2013-07-01 23:00,26.69,273.8,11.69,-26.63,1.76
2013-07-02 01:00,28.45,253.4,11.76,-27.26,-8.14
2013-07-02 02:00,23.17,245.6,11.54,-21.11,-9.56
2013-07-02 03:00,18.18,249.2,11.47,-17.00,-6.47
2013-07-02 04:00,17.89,242.8,11.57,-15.92,-8.17
2013-07-02 05:00,22.29,252.7,11.57,-21.28,-6.64
2013-07-02 06:00,22.00,271.0,11.19,-21.99,0.37
2013-07-02 07:00,24.05,282.6,11.44,-23.47,5.23
2013-07-02 08:00,29.04,274.1,11.38,-28.96,2.09
2013-07-02 10:00,29.92,268.1,11.57,-29.90,-0.97
2013-07-02 11:00,31.09,268.9,11.60,-31.08,-0.62
2013-07-02 12:00,32.26,241.4,13.11,-28.33,-15.43
2013-07-02 13:00,36.37,252.7,12.26,-34.72,-10.83
2013-07-02 14:00,44.58,248.8,11.98,-41.57,-16.11
2013-07-02 15:00,42.82,248.5,11.57,-39.83,-15.72
2013-07-02 16:00,41.94,263.2,11.50,-41.65,-4.95
2013-07-02 17:00,40.18,262.5,11.38,-39.84,-5.23
2013-07-02 18:00,38.72,275.9,11.25,-38.51,3.97
2013-07-02 20:00,46.93,298.7,11.41,-41.15,22.56
2013-07-02 21:00,49.86,292.4,11.38,-46.10,19.01
2013-07-02 22:00,44.87,295.2,11.31,-40.60,19.12
2013-07-02 23:00,37.54,298.7,11.31,-32.92,18.05
2013-07-03 00:00,23.46,297.7,11.63,-20.78,10.90
2013-07-03 01:00,18.77,281.5,11.76,-18.39,3.75
2013-07-03 02:00,15.84,242.8,11.66,-14.09,-7.23
2013-07-03 03:00,17.89,236.2,11.72,-14.86,-9.97
2013-07-03 04:00,15.54,231.6,11.76,-12.18,-9.66
2013-07-03 06:00,22.29,239.7,11.06,-19.24,-11.26
2013-07-03 07:00,26.10,252.3,10.94,-24.87,-7.93
2013-07-03 08:00,29.92,255.5,10.90,-28.96,-7.50
2013-07-03 09:00,31.38,254.8,11.09,-30.28,-8.24
2013-07-03 10:00,39.89,252.0,10.81,-37.93,-12.34
2013-07-03 11:00,41.94,246.0,10.97,-38.31,-17.06
2013-07-03 12:00,47.51,256.5,10.71,-46.21,-11.06
2013-07-03 13:00,40.48,225.3,11.54,-28.75,-28.49
2013-07-03 15:00,48.69,255.5,11.19,-47.13,-12.20
2013-07-03 16:00,42.82,256.2,11.19,-41.58,-10.22
2013-07-03 17:00,40.77,252.0,11.25,-38.77,-12.62
2013-07-03 18:00,39.01,262.5,11.28,-38.68,-5.08
2013-07-03 19:00,36.08,275.9,11.28,-35.89,3.70
2013-07-03 20:00,33.14,298.4,11.22,-29.16,15.76
2013-07-03 21:00,28.74,301.5,10.97,-24.49,15.04
2013-07-03 23:00,17.60,284.7,11.63,-17.02,4.46
2013-07-04 00:00,21.41,243.9,11.79,-19.23,-9.42
2013-07-04 01:00,23.17,213.6,11.31,-12.84,-19.29
2013-07-04 02:00,31.38,225.6,11.16,-22.42,-21.96
2013-07-04 03:00,32.56,222.8,11.00,-22.12,-23.89
2013-07-04 04:00,32.26,224.5,10.78,-22.63,-22.99
2013-07-04 05:00,34.61,233.7,11.00,-27.89,-20.49
2013-07-04 06:00,31.09,249.2,10.71,-29.06,-11.06
2013-07-04 07:00,25.52,253.0,11.35,-24.41,-7.45
2013-07-04 08:00,24.05,267.4,11.28,-24.03,-1.07
2013-07-04 09:00,36.08,276.9,10.65,-35.81,4.36
2013-07-04 10:00,32.56,278.7,11.66,-32.18,4.92
2013-07-04 11:00,31.97,308.2,10.90,-25.11,19.78
2013-07-04 12:00,31.97,299.8,10.94,-27.74,15.88
2013-07-04 13:00,26.10,300.5,11.35,-22.49,13.25
2013-07-04 14:00,18.18,273.1,11.72,-18.16,0.97
2013-07-04 15:00,17.01,245.3,12.01,-15.45,-7.11
2013-07-04 16:00,22.88,263.6,11.91,-22.73,-2.56
2013-07-04 17:00,26.98,280.8,10.94,-26.51,5.06
2013-07-04 19:00,12.61,256.5,11.91,-12.27,-2.93
2013-07-04 20:00,12.32,254.4,11.98,-11.87,-3.31
2013-07-04 21:00,15.84,255.1,12.07,-15.31,-4.06
2013-07-04 22:00,20.53,262.9,12.20,-20.37,-2.55
2013-07-04 23:00,22.88,257.6,12.70,-22.34,-4.91
2013-07-05 00:00,22.29,271.0,12.61,-22.29,0.37
2013-07-05 01:00,21.41,246.7,13.77,-19.66,-8.47
2013-07-05 02:00,28.45,238.6,12.95,-24.29,-14.82
2013-07-05 03:00,26.40,235.1,12.98,-21.65,-15.10
2013-07-05 05:00,16.42,218.9,13.52,-10.32,-12.78
2013-07-05 06:00,9.68,199.9,13.42,-3.30,-9.10
2013-07-05 07:00,7.04,171.1,13.27,1.09,-6.95
2013-07-05 08:00,7.63,157.4,12.98,2.93,-7.04
2013-07-05 09:00,8.51,184.1,12.76,-0.61,-8.48
2013-07-05 10:00,11.44,179.9,13.17,0.02,-11.44
2013-07-05 11:00,4.99,221.4,13.17,-3.30,-3.74
2013-07-05 12:00,13.79,247.8,12.73,-12.76,-5.22
2013-07-05 14:00,26.10,235.4,12.92,-21.50,-14.80
2013-07-05 15:00,26.40,217.2,13.36,-15.95,-21.04
2013-07-05 17:00,30.50,211.5,13.46,-15.96,-26.00
2013-07-05 18:00,26.40,196.8,13.93,-7.62,-25.27
2013-07-05 19:00,15.25,226.0,14.34,-10.96,-10.60
2013-07-05 20:00,7.04,246.0,13.86,-6.43,-2.86
2013-07-05 21:00,7.33,334.2,11.98,-3.19,6.60
2013-07-05 22:00,3.52,10.1,14.02,0.62,3.47
2013-07-06 00:00,1.17,197.8,14.68,-0.36,-1.12
2013-07-06 01:00,9.39,202.0,14.31,-3.52,-8.70
2013-07-06 02:00,17.30,206.6,14.09,-7.75,-15.47
2013-07-06 03:00,31.38,203.5,14.71,-12.49,-28.79
2013-07-06 04:00,31.97,204.9,14.87,-13.44,-29.01
2013-07-06 05:00,26.69,200.6,15.35,-9.41,-24.98
2013-07-06 06:00,26.98,218.6,14.15,-16.82,-21.10
2013-07-06 07:00,24.34,220.3,14.02,-15.76,-18.56
2013-07-06 09:00,22.00,265.7,11.76,-21.94,-1.65
2013-07-06 10:00,20.53,281.2,12.10,-20.14,3.97
2013-07-06 11:00,20.53,278.7,13.58,-20.30,3.10
2013-07-06 12:00,13.49,296.6,14.43,-12.06,6.05
2013-07-06 13:00,17.01,278.7,13.96,-16.82,2.57
2013-07-06 14:00,16.72,254.4,12.26,-16.11,-4.49
2013-07-06 15:00,28.74,237.6,11.79,-24.26,-15.42
2013-07-06 16:00,31.09,236.5,11.47,-25.93,-17.16
2013-07-06 18:00,23.76,250.6,14.71,-22.40,-7.90
2013-07-06 19:00,27.57,253.4,12.89,-26.42,-7.89
2013-07-06 20:00,3.23,315.6,14.84,-2.26,2.31
2013-07-06 21:00,7.33,98.3,15.60,7.26,-1.06
2013-07-06 22:00,4.99,69.5,15.16,4.67,1.75
2013-07-06 23:00,3.81,165.8,15.57,0.93,-3.70
2013-07-07 00:00,12.03,206.3,14.81,-5.32,-10.78
2013-07-07 01:00,21.41,215.4,14.12,-12.41,-17.45
2013-07-07 02:00,30.21,201.0,15.38,-10.82,-28.20
2013-07-07 04:00,34.61,214.7,12.48,-19.70,-28.45
2013-07-07 05:00,34.90,220.0,11.91,-22.42,-26.75
2013-07-07 06:00,34.90,211.9,12.73,-18.44,-29.63
2013-07-07 07:00,31.38,225.3,13.27,-22.29,-22.09
2013-07-07 08:00,22.88,249.5,13.77,-21.43,-8.01
2013-07-07 09:00,21.70,226.0,15.31,-15.60,-15.09
2013-07-07 10:00,,,,,
2013-07-07 11:00,8.51,267.8,15.22,-8.50,-0.33
2013-07-07 13:00,5.28,242.1,14.78,-4.67,-2.47
2013-07-07 14:00,24.05,212.6,12.32,-12.96,-20.26
2013-07-07 15:00,25.81,205.6,12.86,-11.14,-23.28
2013-07-07 16:00,25.22,198.5,15.76,-8.02,-23.92
2013-07-07 17:00,28.74,185.5,15.85,-2.77,-28.61
2013-07-07 18:00,26.69,197.5,15.91,-8.02,-25.46
2013-07-07 19:00,28.74,210.1,15.16,-14.43,-24.86
2013-07-07 20:00,20.53,185.9,15.72,-2.10,-20.42
2013-07-07 22:00,19.65,182.7,16.42,-0.93,-19.63
2013-07-07 23:00,16.42,164.4,16.89,4.41,-15.82
2013-07-08 00:00,16.13,164.1,16.80,4.43,-15.51
2013-07-08 01:00,18.48,200.6,15.12,-6.51,-17.29
2013-07-08 02:00,26.40,222.8,14.75,-17.93,-19.37
2013-07-08 03:00,30.21,234.0,14.56,-24.45,-17.74
2013-07-08 04:00,34.90,234.7,15.09,-28.50,-20.15
2013-07-08 05:00,39.60,236.5,15.41,-33.02,-21.85
2013-07-08 07:00,37.25,245.3,15.79,-33.84,-15.57
2013-07-08 08:00,30.50,239.3,15.85,-26.23,-15.57
2013-07-08 09:00,21.41,232.3,15.57,-16.94,-13.10
2013-07-08 10:00,14.08,275.5,15.94,-14.01,1.36
2013-07-08 11:00,7.63,228.4,15.12,-5.70,-5.06
2013-07-08 12:00,11.73,205.2,15.66,-5.00,-10.61
2013-07-08 13:00,33.73,222.4,15.53,-22.76,-24.89
2013-07-08 14:00,40.77,230.2,15.00,-31.31,-26.11
2013-07-08 15:00,46.63,232.3,14.97,-36.89,-28.53
2013-07-08 16:00,41.94,242.1,15.63,-37.08,-19.61
2013-07-08 18:00,32.85,249.5,16.07,-30.77,-11.50
2013-07-08 19:00,20.53,283.3,17.18,-19.98,4.71
2013-07-08 20:00,13.49,311.7,17.27,-10.07,8.98
2013-07-08 21:00,8.51,16.1,17.49,2.35,8.17
2013-07-08 22:00,8.51,27.7,17.24,3.95,7.53
2013-07-08 23:00,7.63,156.0,16.67,3.10,-6.97
2013-07-09 00:00,,,,,
2013-07-09 01:00,17.60,200.6,16.80,-6.20,-16.47
2013-07-09 03:00,26.69,231.9,17.24,-21.01,-16.46
2013-07-09 04:00,26.40,230.5,17.21,-20.38,-16.78
2013-07-09 05:00,30.80,213.3,17.40,-16.91,-25.74
2013-07-09 06:00,30.21,230.9,17.37,-23.44,-19.06
2013-07-09 07:00,25.52,234.4,17.08,-20.75,-14.86
2013-07-09 08:00,21.70,271.7,17.18,-21.70,0.63
2013-07-09 09:00,16.72,217.9,16.89,-10.26,-13.20
2013-07-09 10:00,12.32,236.9,17.15,-10.31,-6.74
2013-07-09 11:00,7.04,316.7,17.05,-4.83,5.12
2013-07-09 13:00,11.15,307.2,16.89,-8.88,6.73
2013-07-09 14:00,17.30,300.8,17.18,-14.86,8.87
2013-07-09 15:00,20.24,282.9,17.21,-19.73,4.52
2013-07-09 16:00,20.82,276.6,17.11,-20.69,2.39
2013-07-09 17:00,17.89,276.6,16.86,-17.77,2.05
2013-07-09 18:00,14.37,250.2,16.51,-13.52,-4.86
2013-07-09 19:00,20.53,292.1,16.07,-19.03,7.71
2013-07-09 20:00,14.66,235.1,15.94,-12.03,-8.39
2013-07-09 22:00,13.79,263.2,15.85,-13.69,-1.63
2013-07-09 23:00,13.79,257.2,15.79,-13.45,-3.04
2013-07-10 00:00,20.24,273.4,15.79,-20.20,1.21
2013-07-10 01:00,20.82,289.2,15.85,-19.66,6.86
2013-07-10 02:00,23.17,292.1,15.88,-21.47,8.70
2013-07-10 03:00,22.29,301.2,15.76,-19.07,11.55
2013-07-10 04:00,22.88,300.8,15.69,-19.64,11.73
2013-07-10 06:00,17.60,273.1,15.47,-17.57,0.94
2013-07-10 07:00,21.70,254.1,15.41,-20.87,-5.95
2013-07-10 08:00,21.70,243.5,15.38,-19.43,-9.67
2013-07-10 09:00,17.01,273.1,15.41,-16.99,0.91
2013-07-10 10:00,21.70,280.5,15.19,-21.34,3.94
2013-07-10 11:00,21.41,298.0,14.65,-18.90,10.06
2013-07-10 12:00,15.84,324.1,14.53,-9.30,12.82
2013-07-10 13:00,22.00,323.3,14.56,-13.13,17.65
2013-07-10 15:00,17.89,313.5,14.65,-12.98,12.32
2013-07-10 16:00,19.06,299.4,14.78,-16.60,9.37
2013-07-10 17:00,19.94,297.0,14.84,-17.77,9.05
2013-07-10 18:00,14.66,298.0,14.84,-12.94,6.89
2013-07-10 19:00,17.89,296.6,14.87,-15.99,8.02
2013-07-10 20:00,10.56,292.1,14.81,-9.79,3.97
2013-07-10 21:00,7.04,274.5,14.87,-7.02,0.55
2013-07-10 22:00,7.33,279.8,14.97,-7.23,1.24
2013-07-10 23:00,12.61,311.7,14.97,-9.41,8.40
2013-07-11 00:00,14.66,306.8,14.94,-11.74,8.79
2013-07-11 02:00,12.91,337.1,14.78,-5.03,11.88
2013-07-11 03:00,12.61,349.3,14.78,-2.34,12.39
2013-07-11 04:00,11.44,351.8,14.75,-1.63,11.32
2013-07-11 05:00,10.85,353.2,14.75,-1.29,10.78
2013-07-11 06:00,6.45,172.9,14.75,0.80,-6.40
2013-07-11 07:00,5.87,140.5,14.75,3.73,-4.53
2013-07-11 08:00,15.54,187.3,14.71,-1.97,-15.42
2013-07-11 09:00,11.15,153.2,14.71,5.03,-9.95
2013-07-11 10:00,6.45,180.6,14.59,-0.07,-6.45
2013-07-11 12:00,28.45,237.6,14.24,-24.01,-15.26
2013-07-11 13:00,26.40,247.1,14.27,-24.31,-10.29
2013-07-11 14:00,26.40,258.0,14.37,-25.82,-5.51
2013-07-11 15:00,19.36,280.5,14.46,-19.04,3.51
2013-07-11 16:00,18.48,294.9,14.62,-16.76,7.77
2013-07-11 17:00,9.09,298.4,14.65,-8.00,4.32
2013-07-11 18:00,14.08,303.3,14.65,-11.77,7.73
2013-07-11 20:00,9.39,274.8,14.78,-9.35,0.79
2013-07-11 21:00,5.28,15.0,14.87,1.37,5.10
2013-07-11 22:00,6.16,213.6,15.60,-3.41,-5.13
2013-07-11 23:00,2.64,201.7,15.22,-0.98,-2.45
2013-07-12 00:00,1.17,244.2,15.22,-1.06,-0.51
2013-07-12 01:00,5.28,7.6,15.19,0.70,5.23
2013-07-12 02:00,10.27,10.8,15.12,1.92,10.08
2013-07-12 03:00,0.88,48.0,14.94,0.65,0.59
2013-07-12 04:00,3.81,273.8,15.38,-3.80,0.25
2013-07-12 05:00,6.16,302.3,15.03,-5.21,3.29
2013-07-12 07:00,15.54,223.5,15.00,-10.70,-11.28
2013-07-12 08:00,22.00,247.1,15.03,-20.26,-8.58
2013-07-12 09:00,29.33,256.5,14.97,-28.52,-6.82
2013-07-12 10:00,26.69,288.5,13.99,-25.31,8.49
2013-07-12 11:00,31.09,281.9,14.05,-30.43,6.39
2013-07-12 12:00,35.20,289.6,14.24,-33.16,11.80
2013-07-12 13:00,35.20,303.7,14.40,-29.30,19.51
2013-07-12 14:00,36.66,324.1,13.90,-21.52,29.68
2013-07-12 16:00,37.25,335.0,13.86,-15.77,33.75
2013-07-12 17:00,43.70,326.9,14.02,-23.89,36.60
2013-07-12 18:00,46.34,326.2,14.27,-25.81,38.49
2013-07-12 19:00,31.97,328.3,14.09,-16.81,27.19
2013-07-12 20:00,22.29,331.8,14.12,-10.54,19.64
2013-07-12 21:00,15.84,343.0,14.49,-4.63,15.15
2013-07-12 22:00,10.27,352.1,14.53,-1.40,10.17
2013-07-13 00:00,11.44,11.8,14.43,2.35,11.20
2013-07-13 01:00,5.57,28.0,14.34,2.62,4.92
2013-07-13 02:00,7.04,21.0,14.65,2.52,6.57
2013-07-13 03:00,7.04,348.3,14.46,-1.43,6.89
2013-07-13 04:00,10.85,286.4,14.15,-10.41,3.07
2013-07-13 05:00,14.66,269.2,14.62,-14.66,-0.20
2013-07-13 06:00,19.94,263.2,14.27,-19.81,-2.35
2013-07-13 07:00,26.10,264.3,13.93,-25.97,-2.60
2013-07-13 08:00,34.32,257.6,14.34,-33.52,-7.37
2013-07-13 10:00,45.17,275.5,14.37,-44.96,4.35
2013-07-13 11:00,33.14,284.7,14.53,-32.06,8.40
2013-07-13 12:00,29.62,295.6,14.49,-26.72,12.79
2013-07-13 13:00,27.28,315.3,14.46,-19.20,19.38
2013-07-13 14:00,26.98,336.4,14.31,-10.82,24.72
2013-07-13 15:00,26.40,344.8,14.18,-6.94,25.47
2013-07-13 16:00,26.40,356.7,13.99,-1.51,26.35
2013-07-13 17:00,15.25,351.4,13.83,-2.27,15.08
2013-07-13 18:00,14.96,318.4,14.49,-9.93,11.19
2013-07-13 20:00,12.61,268.1,14.37,-12.61,-0.41
2013-07-13 21:00,14.37,223.5,14.31,-9.89,-10.43
2013-07-13 22:00,18.77,216.8,14.46,-11.25,-15.03
2013-07-13 23:00,13.79,223.8,15.19,-9.55,-9.94
2013-07-14 00:00,7.92,233.0,15.47,-6.32,-4.77
2013-07-14 01:00,12.32,242.8,14.65,-10.96,-5.62
2013-07-14 02:00,14.08,253.4,14.46,-13.49,-4.03
2013-07-14 03:00,21.41,289.9,14.09,-20.13,7.30
2013-07-14 05:00,22.58,305.4,14.31,-18.40,13.09
2013-07-14 06:00,13.49,290.6,14.75,-12.62,4.76
2013-07-14 07:00,16.42,269.6,14.81,-16.42,-0.13
2013-07-14 08:00,14.66,239.7,14.71,-12.66,-7.41
2013-07-14 09:00,19.06,227.4,14.31,-14.02,-12.91
2013-07-14 10:00,17.01,230.9,14.49,-13.20,-10.73
2013-07-14 11:00,19.94,226.0,14.84,-14.34,-13.87
2013-07-14 12:00,21.12,242.8,14.97,-18.79,-9.64
2013-07-14 14:00,18.77,254.1,14.21,-18.05,-5.15
2013-07-14 15:00,21.41,250.6,15.19,-20.19,-7.12
2013-07-14 16:00,17.89,240.0,14.78,-15.50,-8.94
2013-07-14 17:00,24.93,271.7,14.87,-24.92,0.72
2013-07-14 18:00,23.17,280.8,14.87,-22.76,4.34
2013-07-14 19:00,20.53,272.0,14.49,-20.52,0.72
2013-07-14 20:00,20.53,247.4,16.42,-18.95,-7.89
2013-07-14 21:00,25.52,236.2,14.24,-21.19,-14.21
2013-07-14 23:00,26.10,257.6,14.68,-25.49,-5.61
2013-07-15 00:00,23.76,249.2,14.56,-22.20,-8.45
2013-07-15 01:00,18.48,274.5,13.61,-18.42,1.44
2013-07-15 02:00,12.61,293.8,16.77,-11.54,5.09
2013-07-15 03:00,12.61,291.4,15.38,-11.75,4.59
2013-07-15 04:00,15.54,312.4,15.16,-11.47,10.49
2013-07-15 05:00,8.21,205.2,17.27,-3.50,-7.43
2013-07-15 06:00,12.61,305.8,16.61,-10.23,7.37
2013-07-15 07:00,9.68,258.7,16.89,-9.49,-1.90
2013-07-15 09:00,31.68,230.5,16.73,-24.45,-20.14
2013-07-15 10:00,32.85,234.4,16.48,-26.71,-19.13
2013-07-15 11:00,31.09,244.2,14.59,-28.00,-13.51
2013-07-15 12:00,34.61,252.0,15.91,-32.91,-10.71
2013-07-15 13:00,28.74,281.2,15.88,-28.20,5.56
2013-07-15 14:00,33.14,299.1,16.13,-28.96,16.11
2013-07-15 15:00,31.09,311.0,17.11,-23.45,20.41
2013-07-15 16:00,30.80,325.1,16.35,-17.62,25.26
2013-07-15 18:00,27.57,311.7,13.86,-20.57,18.36
2013-07-15 19:00,17.89,306.5,13.99,-14.39,10.64
2013-07-15 20:00,15.25,272.0,13.99,-15.24,0.54
2013-07-15 21:00,14.66,255.8,14.34,-14.22,-3.59
2013-07-15 22:00,18.77,160.6,17.65,6.25,-17.70
2013-07-15 23:00,22.29,189.0,16.07,-3.50,-22.01
2013-07-16 00:00,21.41,178.8,17.02,0.43,-21.41
2013-07-16 01:00,,,,,
2013-07-16 02:00,17.30,197.1,17.59,-5.10,-16.54
2013-07-16 04:00,24.64,193.3,18.29,-5.65,-23.98
2013-07-16 05:00,14.08,209.1,18.32,-6.84,-12.30
2013-07-16 06:00,12.61,257.6,16.48,-12.32,-2.71
2013-07-16 07:00,19.65,241.8,17.11,-17.31,-9.29
2013-07-16 08:00,29.92,265.7,16.61,-29.83,-2.25
2013-07-16 09:00,27.28,256.2,15.72,-26.49,-6.51
2013-07-16 10:00,38.72,261.1,16.07,-38.25,-5.98
2013-07-16 11:00,41.36,268.5,16.61,-41.34,-1.08
2013-07-16 12:00,45.46,266.0,17.02,-45.35,-3.14
2013-07-16 14:00,22.88,303.3,17.18,-19.12,12.56
2013-07-16 15:00,19.65,316.7,17.34,-13.48,14.29
2013-07-16 16:00,20.53,341.3,17.37,-6.59,19.44
2013-07-16 17:00,20.24,10.8,17.37,3.78,19.88
2013-07-16 19:00,4.11,135.6,16.42,2.87,-2.93
2013-07-16 20:00,12.32,193.3,16.32,-2.82,-11.99
2013-07-16 21:00,27.57,194.7,16.10,-6.98,-26.67
2013-07-16 23:00,22.58,186.6,19.34,-2.59,-22.44
2013-07-17 00:00,22.58,207.3,19.66,-10.37,-20.06
2013-07-17 01:00,36.66,194.0,17.53,-8.84,-35.58
2013-07-17 02:00,26.69,243.2,18.29,-23.82,-12.04
2013-07-17 03:00,13.20,258.3,19.44,-12.92,-2.68
2013-07-17 04:00,12.32,274.1,19.08,-12.29,0.89
2013-07-17 05:00,15.54,287.1,16.70,-14.85,4.58
2013-07-17 06:00,7.04,280.8,16.77,-6.91,1.32
2013-07-17 08:00,6.45,243.9,17.24,-5.79,-2.84
2013-07-17 09:00,13.79,279.8,15.72,-13.59,2.33
2013-07-17 10:00,20.82,259.4,15.57,-20.47,-3.85
2013-07-17 11:00,32.85,256.5,17.68,-31.95,-7.64
2013-07-17 12:00,29.92,248.1,16.89,-27.76,-11.16
2013-07-17 13:00,28.74,265.3,16.92,-28.65,-2.34
2013-07-17 14:00,14.08,308.6,16.86,-11.01,8.78
2013-07-17 15:00,12.91,317.0,16.51,-8.80,9.44
2013-07-17 16:00,8.80,77.9,16.61,8.60,1.84
2013-07-17 18:00,4.99,142.6,16.99,3.03,-3.96
2013-07-17 19:00,13.79,179.9,17.05,0.03,-13.79
2013-07-17 20:00,14.08,190.1,17.72,-2.47,-13.86
2013-07-17 21:00,17.60,211.2,17.62,-9.11,-15.05
2013-07-17 22:00,14.96,215.4,17.72,-8.67,-12.19
2013-07-17 23:00,13.20,192.6,17.53,-2.87,-12.88
2013-07-18 00:00,18.18,206.3,17.24,-8.05,-16.31
2013-07-18 01:00,9.39,152.5,17.30,4.34,-8.32
2013-07-18 02:00,8.21,135.2,16.99,5.78,-5.83